St. Paul Lake Elmo, MN

1:15 PM CST on November 21, 2019 (GMT -0600)
St. Paul Lake Elmo

Weather History for K21D - October, 2019

Change the Weather History Date:

Wednesday, October 23, 2019

  Actual Average (WUND) Record (WUND)
Temperature  
Mean Temperature 38 °F -  
Max Temperature 44 °F - - (-1)
Min Temperature 33 °F - - (-1)
Degree Days  
Heating Degree Days 26    
Moisture  
Dew Point 33 °F    
Average Humidity 79    
Maximum Humidity 93    
Minimum Humidity 66    
Precipitation  
Precipitation 0.00 in - - ()
Sea Level Pressure  
Sea Level Pressure 29.90 in    
Wind  
Wind Speed 8 mph (WNW)    
Max Wind Speed 13 mph    
Max Gust Speed 17 mph    
Visibility 10 miles    
Events      
Averages and records for this station are not official NWS values.
T = Trace of Precipitation, MM = Missing Value Source: NWS Daily Summary

Daily Weather History Graph

Daily Weather History Graph

Search for Another Location

Airport or City:

Astronomy

Oct. 23, 2019 Rise Set
Actual Time 7:37 AM CDT 6:13 PM CDT
Civil Twilight 7:07 AM CDT 6:43 PM CDT
Nautical Twilight 6:33 AM CDT 7:17 PM CDT
Astronomical Twilight 5:59 AM CDT 7:51 PM CDT
Moon 1:37 AM CDT (10/23) 4:21 PM CDT (10/23)
Length of Visible Light 11h 35m
Length of Day
10h 35m
Waning Crescent, 26% of the Moon is Illuminated
Oct 23
Waning Crescent
Oct 27
New
Nov 4
First Quarter
Nov 12
Full
Nov 19
Last Quarter

Hourly Weather History & Observations

Time (CDT) Temp. Windchill Dew Point Humidity Pressure Visibility Wind Dir Wind Speed Gust Speed Precip Events Conditions
12:15 AM 41.0 °F 33.9 °F 33.8 °F 76% 29.70 in 10.0 mi West 12.7 mph 17.3 mph N/A   Mostly Cloudy
12:55 AM 41.0 °F 33.9 °F 33.8 °F 76% 29.70 in 10.0 mi West 12.7 mph - N/A   Overcast
1:15 AM 41.0 °F 34.3 °F 33.8 °F 76% 29.70 in 10.0 mi West 11.5 mph - N/A   Mostly Cloudy
1:16 AM 41.0 °F 33.9 °F 33.8 °F 76% 29.70 in 10.0 mi West 12.7 mph - N/A   Mostly Cloudy
1:35 AM 39.2 °F 34.2 °F 32.0 °F 75% 29.70 in 10.0 mi West 6.9 mph - N/A   Clear
1:36 AM 39.2 °F 33.6 °F 32.0 °F 75% 29.70 in 10.0 mi West 8.1 mph - N/A   Clear
1:58 AM 37.4 °F 32.1 °F 32.0 °F 81% 29.70 in 10.0 mi West 6.9 mph - N/A   Scattered Clouds
2:16 AM 39.2 °F 35.0 °F 33.8 °F 81% 29.71 in 10.0 mi West 5.8 mph - N/A   Mostly Cloudy
2:35 AM 37.4 °F 32.1 °F 32.0 °F 81% 29.72 in 10.0 mi West 6.9 mph - N/A   Mostly Cloudy
2:36 AM 37.4 °F 31.4 °F 32.0 °F 81% 29.72 in 10.0 mi West 8.1 mph - N/A   Mostly Cloudy
2:55 AM 37.4 °F 32.1 °F 33.8 °F 87% 29.72 in 10.0 mi West 6.9 mph - N/A   Overcast
2:56 AM 37.4 °F 32.1 °F 33.8 °F 87% 29.72 in 10.0 mi West 6.9 mph - N/A   Overcast
3:15 AM 37.4 °F 32.8 °F 33.8 °F 87% 29.73 in 10.0 mi West 5.8 mph - N/A   Overcast
3:19 AM 37.4 °F 32.8 °F 33.8 °F 87% 29.73 in 10.0 mi WSW 5.8 mph - N/A   Overcast
3:38 AM 37.4 °F 31.4 °F 32.0 °F 81% 29.74 in 10.0 mi West 8.1 mph - N/A   Scattered Clouds
3:55 AM 35.6 °F 29.2 °F 32.0 °F 87% 29.74 in 10.0 mi West 8.1 mph - N/A   Clear
4:15 AM 35.6 °F 29.9 °F 32.0 °F 87% 29.75 in 10.0 mi West 6.9 mph - N/A   Clear
4:16 AM 35.6 °F 29.9 °F 32.0 °F 87% 29.75 in 10.0 mi WSW 6.9 mph - N/A   Clear
4:35 AM 35.6 °F 29.2 °F 32.0 °F 87% 29.75 in 10.0 mi West 8.1 mph - N/A   Clear
4:36 AM 35.6 °F 29.2 °F 32.0 °F 87% 29.75 in 10.0 mi West 8.1 mph - N/A   Clear
4:58 AM 35.6 °F 29.2 °F 32.0 °F 87% 29.77 in 10.0 mi West 8.1 mph - N/A   Clear
5:16 AM 33.8 °F 27.0 °F 32.0 °F 93% 29.78 in 10.0 mi West 8.1 mph - N/A   Clear
5:36 AM 33.8 °F 27.0 °F 32.0 °F 93% 29.78 in 10.0 mi West 8.1 mph - N/A   Clear
5:55 AM 33.8 °F 27.7 °F 32.0 °F 93% 29.79 in 10.0 mi West 6.9 mph - N/A   Clear
6:15 AM 33.8 °F 28.6 °F 32.0 °F 93% 29.79 in 10.0 mi West 5.8 mph - N/A   Clear
6:19 AM 33.8 °F 28.6 °F 32.0 °F 93% 29.79 in 10.0 mi West 5.8 mph - N/A   Clear
6:56 AM 33.8 °F 29.6 °F 32.0 °F 93% 29.80 in 10.0 mi West 4.6 mph - N/A   Clear
7:15 AM 33.8 °F 28.6 °F 32.0 °F 93% 29.80 in 10.0 mi West 5.8 mph - N/A   Clear
7:16 AM 33.8 °F 28.6 °F 32.0 °F 93% 29.80 in 10.0 mi West 5.8 mph - N/A   Clear
7:35 AM 33.8 °F 27.7 °F 32.0 °F 93% 29.81 in 10.0 mi West 6.9 mph - N/A   Clear
7:36 AM 33.8 °F 27.7 °F 32.0 °F 93% 29.81 in 10.0 mi West 6.9 mph - N/A   Clear
7:58 AM 33.8 °F 27.7 °F 32.0 °F 93% 29.82 in 10.0 mi West 6.9 mph - N/A   Clear
8:16 AM 33.8 °F 28.6 °F 32.0 °F 93% 29.83 in 10.0 mi West 5.8 mph - N/A   Clear
8:35 AM 33.8 °F 28.6 °F 32.0 °F 93% 29.84 in 10.0 mi West 5.8 mph - N/A   Clear
8:55 AM 35.6 °F 30.7 °F 32.0 °F 87% 29.85 in 10.0 mi West 5.8 mph - N/A   Clear
8:56 AM 35.6 °F 30.7 °F 32.0 °F 87% 29.85 in 10.0 mi West 5.8 mph - N/A   Clear
9:15 AM 35.6 °F 28.0 °F 32.0 °F 87% 29.85 in 10.0 mi West 10.4 mph - N/A   Clear
9:37 AM 37.4 °F 31.4 °F 32.0 °F 81% 29.85 in 10.0 mi WNW 8.1 mph - N/A   Clear
9:55 AM 37.4 °F 32.1 °F 32.0 °F 81% 29.86 in 10.0 mi NW 6.9 mph - N/A   Mostly Cloudy
10:15 AM 37.4 °F 30.3 °F 32.0 °F 81% 29.87 in 10.0 mi WNW 10.4 mph - N/A   Overcast
10:16 AM 37.4 °F 30.3 °F 32.0 °F 81% 29.87 in 10.0 mi WNW 10.4 mph - N/A   Overcast
10:35 AM 37.4 °F 33.8 °F 32.0 °F 81% 29.87 in 10.0 mi WNW 4.6 mph - N/A   Mostly Cloudy
10:36 AM 37.4 °F 32.8 °F 32.0 °F 81% 29.87 in 10.0 mi West 5.8 mph - N/A   Scattered Clouds
10:59 AM 39.2 °F 34.2 °F 33.8 °F 81% 29.88 in 10.0 mi West 6.9 mph - N/A   Mostly Cloudy
11:16 AM 41.0 °F 36.4 °F 33.8 °F 76% 29.88 in 10.0 mi WNW 6.9 mph - N/A   Scattered Clouds
11:35 AM 41.0 °F 39.0 °F 33.8 °F 76% 29.89 in 10.0 mi WNW 3.5 mph - N/A   Scattered Clouds
11:36 AM 41.0 °F 38.0 °F 33.8 °F 76% 29.89 in 10.0 mi WNW 4.6 mph - N/A   Scattered Clouds
11:55 AM 42.8 °F 39.3 °F 33.8 °F 70% 29.89 in 10.0 mi West 5.8 mph - N/A   Scattered Clouds
12:18 PM 42.8 °F 38.6 °F 33.8 °F 70% 29.89 in 10.0 mi WNW 6.9 mph - N/A   Scattered Clouds
12:36 PM 42.8 °F 39.3 °F 33.8 °F 70% 29.89 in 10.0 mi WNW 5.8 mph - N/A   Scattered Clouds
12:56 PM 42.8 °F 40.1 °F 33.8 °F 70% 29.89 in 10.0 mi NW 4.6 mph - N/A   Scattered Clouds
1:15 PM 44.6 °F 41.4 °F 35.6 °F 71% 29.89 in 10.0 mi WNW 5.8 mph - N/A   Scattered Clouds
1:16 PM 44.6 °F 40.7 °F 35.6 °F 71% 29.89 in 10.0 mi NW 6.9 mph - N/A   Scattered Clouds
1:35 PM 42.8 °F 38.6 °F 33.8 °F 70% 29.90 in 10.0 mi WNW 6.9 mph - N/A   Scattered Clouds
1:39 PM 42.8 °F 40.1 °F 33.8 °F 70% 29.89 in 10.0 mi West 4.6 mph - N/A   Scattered Clouds
1:57 PM 44.6 °F 40.2 °F 33.8 °F 66% 29.90 in 10.0 mi NNW 8.1 mph - N/A   Mostly Cloudy
2:15 PM 42.8 °F 38.6 °F 33.8 °F 70% 29.90 in 10.0 mi NW 6.9 mph - N/A   Scattered Clouds
2:35 PM 42.8 °F 36.6 °F 33.8 °F 70% 29.90 in 10.0 mi NNW 11.5 mph 16.1 mph N/A   Scattered Clouds
2:55 PM 42.8 °F 37.0 °F 33.8 °F 70% 29.91 in 10.0 mi NW 10.4 mph - N/A   Clear
2:56 PM 42.8 °F 37.5 °F 33.8 °F 70% 29.91 in 10.0 mi NW 9.2 mph - N/A   Clear
3:19 PM 41.0 °F 35.2 °F 33.8 °F 76% 29.92 in 10.0 mi NNW 9.2 mph - N/A   Scattered Clouds
3:36 PM 41.0 °F 35.8 °F 33.8 °F 76% 29.93 in 10.0 mi NNW 8.1 mph - N/A   Scattered Clouds
3:55 PM 41.0 °F 38.0 °F 33.8 °F 76% 29.94 in 10.0 mi NNW 4.6 mph - N/A   Mostly Cloudy
4:15 PM 42.8 °F 41.1 °F 33.8 °F 70% 29.95 in 10.0 mi NNW 3.5 mph - N/A   Mostly Cloudy
4:16 PM 42.8 °F 41.1 °F 33.8 °F 70% 29.95 in 10.0 mi NW 3.5 mph - N/A   Mostly Cloudy
4:35 PM 42.8 °F 38.6 °F 33.8 °F 70% 29.96 in 10.0 mi NW 6.9 mph - N/A   Overcast
4:40 PM 42.8 °F 40.1 °F 33.8 °F 70% 29.96 in 10.0 mi WNW 4.6 mph - N/A   Overcast
4:57 PM 42.8 °F - 33.8 °F 70% 29.97 in 10.0 mi Calm Calm - N/A   Overcast
5:15 PM 42.8 °F 39.3 °F 33.8 °F 70% 29.97 in 10.0 mi NNW 5.8 mph - N/A   Overcast
5:35 PM 42.8 °F 40.1 °F 33.8 °F 70% 29.98 in 10.0 mi NNW 4.6 mph - N/A   Overcast
5:55 PM 42.8 °F 41.1 °F 33.8 °F 70% 29.99 in 10.0 mi WNW 3.5 mph - N/A   Overcast
5:56 PM 42.8 °F 41.1 °F 33.8 °F 70% 29.99 in 10.0 mi WNW 3.5 mph - N/A   Overcast
6:18 PM 42.8 °F - 33.8 °F 70% 30.00 in 10.0 mi Calm Calm - N/A   Overcast
6:37 PM 41.0 °F - 33.8 °F 76% 30.01 in 10.0 mi Calm Calm - N/A   Overcast
6:55 PM 42.8 °F - 33.8 °F 70% 30.02 in 10.0 mi Calm Calm - N/A   Overcast
6:56 PM 42.8 °F - 33.8 °F 70% 30.02 in 10.0 mi Calm Calm - N/A   Overcast
7:15 PM 42.8 °F 40.1 °F 33.8 °F 70% 30.03 in 10.0 mi NW 4.6 mph - N/A   Overcast
7:16 PM 42.8 °F 41.1 °F 33.8 °F 70% 30.03 in 10.0 mi NW 3.5 mph - N/A   Overcast
7:35 PM 42.8 °F 38.0 °F 32.0 °F 66% 30.04 in 10.0 mi NW 8.1 mph - N/A   Overcast
7:40 PM 42.8 °F 38.0 °F 32.0 °F 66% 30.04 in 10.0 mi NNW 8.1 mph - N/A   Overcast
7:57 PM 41.0 °F 36.4 °F 32.0 °F 70% 30.05 in 10.0 mi NNW 6.9 mph - N/A   Overcast
8:15 PM 41.0 °F 36.4 °F 32.0 °F 70% 30.05 in 10.0 mi NNW 6.9 mph - N/A   Mostly Cloudy
8:35 PM 41.0 °F 38.0 °F 32.0 °F 70% 30.07 in 10.0 mi NW 4.6 mph - N/A   Clear
8:36 PM 39.2 °F 35.9 °F 32.0 °F 75% 30.07 in 10.0 mi NW 4.6 mph - N/A   Clear
8:55 PM 39.2 °F 33.6 °F 32.0 °F 75% 30.07 in 10.0 mi NW 8.1 mph - N/A   Clear
8:56 PM 39.2 °F 33.6 °F 32.0 °F 75% 30.07 in 10.0 mi NW 8.1 mph - N/A   Clear
9:18 PM 39.2 °F 35.0 °F 32.0 °F 75% 30.08 in 10.0 mi WNW 5.8 mph - N/A   Clear
9:36 PM 39.2 °F 35.0 °F 32.0 °F 75% 30.08 in 10.0 mi WNW 5.8 mph - N/A   Clear
9:56 PM 37.4 °F 33.8 °F 32.0 °F 81% 30.09 in 10.0 mi NW 4.6 mph - N/A   Clear
10:15 PM 37.4 °F 32.1 °F 32.0 °F 81% 30.10 in 10.0 mi WNW 6.9 mph - N/A   Clear
10:16 PM 37.4 °F 32.1 °F 32.0 °F 81% 30.10 in 10.0 mi WNW 6.9 mph - N/A   Clear
10:35 PM 37.4 °F 31.4 °F 32.0 °F 81% 30.11 in 10.0 mi NW 8.1 mph - N/A   Clear
10:39 PM 37.4 °F 32.8 °F 32.0 °F 81% 30.11 in 10.0 mi NW 5.8 mph - N/A   Clear
10:58 PM 37.4 °F 30.8 °F 32.0 °F 81% 30.12 in 10.0 mi NW 9.2 mph - N/A   Clear
11:16 PM 37.4 °F 33.8 °F 32.0 °F 81% 30.12 in 10.0 mi NW 4.6 mph - N/A   Scattered Clouds
11:35 PM 37.4 °F 32.1 °F 32.0 °F 81% 30.13 in 10.0 mi WNW 6.9 mph - N/A   Overcast
11:55 PM 39.2 °F 34.2 °F 32.0 °F 75% 30.13 in 10.0 mi WNW 6.9 mph - N/A   Overcast
11:56 PM 41.0 °F 35.8 °F 32.0 °F 70% 30.13 in 10.0 mi WNW 8.1 mph - N/A   Overcast